When you browse on this site, cookies collect data to enhance your experience and personalize the content and advertising you see.
Visit our Privacy Policy to learn more. By continuing to use the site, you agree to this use of cookies and data.
  • Em Portugal
  • Lista de países
  • Para 7 dias
  • Temperatura da água
  • Mapa do tempo
  • Widgets de tempo
  • user-avatar
    Iniciar Sessão

    Previsão horária em Bratchikovo

    Hoje, 29 Maio, Sexta-feira

    Tempo Temperatura Precipitação Vento Pressão Humidade
    00:00 +10°C° 0 mm 2 m/s 746 mmHg 84%
    01:00 +10°C° 0 mm 2 m/s 746 mmHg 87%
    02:00 +10°C° 0 mm 2 m/s 747 mmHg 86%
    03:00 +10°C° 0 mm 2 m/s 747 mmHg 86%
    04:00 +10°C° 0 mm 3 m/s 747 mmHg 83%
    05:00 +12°C° 0 mm 3 m/s 747 mmHg 75%
    06:00 +14°C° 0 mm 3 m/s 747 mmHg 68%
    07:00 +16°C° 0 mm 3 m/s 747 mmHg 61%
    08:00 +18°C° 0 mm 4 m/s 747 mmHg 55%
    09:00 +19°C° 0 mm 4 m/s 747 mmHg 50%
    10:00 +20°C° 0 mm 4 m/s 747 mmHg 44%
    11:00 +20°C° 0 mm 4 m/s 747 mmHg 44%
    12:00 +21°C° 0 mm 4 m/s 746 mmHg 44%
    13:00 +21°C° 0 mm 4 m/s 746 mmHg 43%
    14:00 +21°C° 0 mm 4 m/s 746 mmHg 46%
    15:00 +20°C° 0 mm 3 m/s 746 mmHg 48%
    16:00 +20°C° 0 mm 3 m/s 746 mmHg 50%
    17:00 +20°C° 0 mm 3 m/s 746 mmHg 54%
    18:00 +19°C° 0 mm 2 m/s 746 mmHg 58%
    19:00 +19°C° 0 mm 2 m/s 746 mmHg 62%
    20:00 +17°C° 0 mm 2 m/s 746 mmHg 66%
    21:00 +16°C° 0 mm 2 m/s 746 mmHg 71%
    22:00 +14°C° 0 mm 2 m/s 746 mmHg 75%
    23:00 +13°C° 0 mm 2 m/s 746 mmHg 76%

    Amanhã, 30 Maio, Sábado

    Tempo Temperatura Precipitação Vento Pressão Humidade
    00:00 +13°C° 0 mm 1 m/s 746 mmHg 78%
    01:00 +12°C° 0 mm 1 m/s 746 mmHg 79%
    02:00 +12°C° 0 mm 2 m/s 746 mmHg 80%
    03:00 +12°C° 0 mm 2 m/s 746 mmHg 81%
    04:00 +12°C° 0 mm 2 m/s 746 mmHg 82%
    05:00 +14°C° 0 mm 2 m/s 746 mmHg 76%
    06:00 +16°C° 0 mm 3 m/s 745 mmHg 70%
    07:00 +18°C° 0 mm 3 m/s 745 mmHg 65%
    08:00 +18°C° 0 mm 3 m/s 745 mmHg 63%
    09:00 +19°C° 0 mm 4 m/s 745 mmHg 61%
    10:00 +19°C° 0 mm 4 m/s 745 mmHg 59%
    11:00 +19°C° 0 mm 3 m/s 744 mmHg 61%
    12:00 +19°C° 0 mm 3 m/s 744 mmHg 64%
    13:00 +18°C° 0 mm 3 m/s 744 mmHg 67%
    14:00 +18°C° 0 mm 3 m/s 744 mmHg 70%
    15:00 +17°C° 0 mm 2 m/s 744 mmHg 74%
    16:00 +16°C° 0 mm 2 m/s 744 mmHg 77%
    17:00 +16°C° 0.2 mm 2 m/s 744 mmHg 82%
    18:00 +15°C° 0.2 mm 1 m/s 743 mmHg 87%
    19:00 +14°C° 0.2 mm 1 m/s 743 mmHg 93%
    20:00 +13°C° 0.2 mm 1 m/s 743 mmHg 94%
    21:00 +13°C° 0.2 mm 1 m/s 743 mmHg 94%
    22:00 +12°C° 0.2 mm 1 m/s 744 mmHg 95%
    23:00 +12°C° 0 mm 1 m/s 743 mmHg 94%

    Depois de amanhã, 31 Maio, Domingo

    Tempo Temperatura Precipitação Vento Pressão Humidade
    00:00 +11°C° 0 mm 0 m/s 743 mmHg 94%
    01:00 +10°C° 0 mm 0 m/s 743 mmHg 93%
    02:00 +10°C° 0 mm 0 m/s 742 mmHg 93%
    03:00 +10°C° 0 mm 0 m/s 742 mmHg 93%
    04:00 +11°C° 0 mm 1 m/s 742 mmHg 94%
    05:00 +11°C° 0.1 mm 1 m/s 742 mmHg 94%
    06:00 +10°C° 0.1 mm 2 m/s 741 mmHg 94%
    07:00 +10°C° 0.1 mm 2 m/s 741 mmHg 93%
    08:00 +9°C° 0.5 mm 3 m/s 741 mmHg 93%
    09:00 +8°C° 0.5 mm 4 m/s 740 mmHg 93%
    10:00 +8°C° 0.5 mm 4 m/s 740 mmHg 92%
    11:00 +8°C° 0.3 mm 4 m/s 740 mmHg 91%
    12:00 +8°C° 0.3 mm 4 m/s 740 mmHg 90%
    13:00 +8°C° 0.3 mm 4 m/s 739 mmHg 88%
    14:00 +8°C° 1.6 mm 4 m/s 739 mmHg 91%
    15:00 +7°C° 1.6 mm 4 m/s 739 mmHg 93%
    16:00 +7°C° 1.6 mm 4 m/s 739 mmHg 95%
    17:00 +7°C° 2.6 mm 4 m/s 739 mmHg 96%
    18:00 +7°C° 2.6 mm 4 m/s 738 mmHg 96%
    19:00 +6°C° 2.6 mm 5 m/s 738 mmHg 97%
    20:00 +6°C° 2 mm 4 m/s 738 mmHg 96%
    21:00 +6°C° 2 mm 4 m/s 738 mmHg 96%
    22:00 +6°C° 2 mm 4 m/s 737 mmHg 96%
    23:00 +6°C° 2.2 mm 4 m/s 737 mmHg 96%

    1 Junho, Segunda-feira

    Tempo Temperatura Precipitação Vento Pressão Humidade
    00:00 +6°C° 2.2 mm 4 m/s 737 mmHg 96%
    01:00 +6°C° 2.2 mm 5 m/s 737 mmHg 96%
    02:00 +6°C° 0.5 mm 5 m/s 737 mmHg 96%
    03:00 +6°C° 0.5 mm 4 m/s 737 mmHg 96%
    04:00 +6°C° 0.5 mm 4 m/s 737 mmHg 96%
    05:00 +6°C° 0.7 mm 4 m/s 737 mmHg 96%
    06:00 +6°C° 0.7 mm 4 m/s 737 mmHg 96%
    07:00 +7°C° 0.7 mm 3 m/s 737 mmHg 96%
    08:00 +6°C° 0.4 mm 4 m/s 737 mmHg 95%
    09:00 +6°C° 0.4 mm 4 m/s 738 mmHg 94%
    10:00 +6°C° 0.4 mm 4 m/s 738 mmHg 93%
    11:00 +7°C° 0.2 mm 3 m/s 738 mmHg 93%
    12:00 +7°C° 0.2 mm 3 m/s 738 mmHg 93%
    13:00 +8°C° 0.2 mm 3 m/s 738 mmHg 93%
    14:00 +7°C° 0.9 mm 3 m/s 738 mmHg 94%
    15:00 +7°C° 0.9 mm 3 m/s 738 mmHg 95%
    16:00 +7°C° 0.9 mm 3 m/s 738 mmHg 96%
    17:00 +7°C° 0.4 mm 3 m/s 738 mmHg 97%
    18:00 +7°C° 0.4 mm 2 m/s 738 mmHg 97%
    19:00 +7°C° 0.4 mm 2 m/s 738 mmHg 97%
    20:00 +7°C° 0 mm 2 m/s 738 mmHg 97%
    21:00 +7°C° 0 mm 2 m/s 738 mmHg 98%
    22:00 +7°C° 0 mm 2 m/s 738 mmHg 98%
    23:00 +8°C° 0.1 mm 3 m/s 738 mmHg 98%

    2 Junho, Terça-feira

    Tempo Temperatura Precipitação Vento Pressão Humidade
    00:00 +8°C° 0.1 mm 3 m/s 738 mmHg 98%
    01:00 +8°C° 0.1 mm 3 m/s 738 mmHg 98%
    02:00 +8°C° 1.3 mm 3 m/s 737 mmHg 98%
    03:00 +8°C° 1.3 mm 3 m/s 737 mmHg 98%
    04:00 +8°C° 1.3 mm 2 m/s 737 mmHg 98%
    05:00 +8°C° 0.5 mm 2 m/s 737 mmHg 98%
    06:00 +9°C° 0.5 mm 2 m/s 737 mmHg 98%
    07:00 +9°C° 0.5 mm 2 m/s 737 mmHg 97%
    08:00 +12°C° 0.1 mm 2 m/s 737 mmHg 92%
    09:00 +13°C° 0.1 mm 2 m/s 737 mmHg 87%
    10:00 +14°C° 0.1 mm 2 m/s 738 mmHg 82%
    11:00 +15°C° 0.3 mm 2 m/s 738 mmHg 79%
    12:00 +15°C° 0.3 mm 2 m/s 738 mmHg 75%
    13:00 +16°C° 0.3 mm 3 m/s 738 mmHg 72%
    14:00 +15°C° 0.2 mm 2 m/s 738 mmHg 72%
    15:00 +14°C° 0.2 mm 2 m/s 738 mmHg 73%
    16:00 +14°C° 0.2 mm 2 m/s 738 mmHg 74%
    17:00 +13°C° 0.1 mm 2 m/s 739 mmHg 77%
    18:00 +13°C° 0.1 mm 1 m/s 739 mmHg 81%
    19:00 +13°C° 0.1 mm 1 m/s 739 mmHg 85%
    20:00 +12°C° 0.1 mm 1 m/s 739 mmHg 89%
    21:00 +10°C° 0.1 mm 2 m/s 740 mmHg 93%
    22:00 +9°C° 0.1 mm 2 m/s 740 mmHg 97%
    23:00 +8°C° 0 mm 2 m/s 740 mmHg 97%

    3 Junho, Quarta-feira

    Tempo Temperatura Precipitação Vento Pressão Humidade
    00:00 +8°C° 0 mm 2 m/s 741 mmHg 97%
    01:00 +8°C° 0 mm 2 m/s 741 mmHg 97%
    02:00 +8°C° 0 mm 2 m/s 741 mmHg 96%
    03:00 +8°C° 0 mm 2 m/s 741 mmHg 96%
    04:00 +8°C° 0 mm 2 m/s 741 mmHg 96%
    05:00 +8°C° 0 mm 2 m/s 741 mmHg 94%
    06:00 +8°C° 0 mm 3 m/s 742 mmHg 93%
    07:00 +9°C° 0 mm 3 m/s 742 mmHg 92%
    08:00 +9°C° 0.1 mm 3 m/s 742 mmHg 89%
    09:00 +10°C° 0.1 mm 3 m/s 742 mmHg 87%
    10:00 +10°C° 0.1 mm 3 m/s 742 mmHg 85%
    11:00 +11°C° 0.2 mm 3 m/s 742 mmHg 81%
    12:00 +12°C° 0.2 mm 3 m/s 742 mmHg 76%
    13:00 +13°C° 0.2 mm 4 m/s 742 mmHg 72%
    14:00 +13°C° 0.1 mm 3 m/s 742 mmHg 70%
    15:00 +14°C° 0.1 mm 3 m/s 742 mmHg 69%
    16:00 +14°C° 0.1 mm 3 m/s 742 mmHg 67%
    17:00 +14°C° 0.1 mm 2 m/s 742 mmHg 72%
    18:00 +14°C° 0.1 mm 2 m/s 742 mmHg 77%
    19:00 +13°C° 0.1 mm 2 m/s 742 mmHg 82%
    20:00 +12°C° 0 mm 2 m/s 742 mmHg 84%
    21:00 +10°C° 0 mm 2 m/s 742 mmHg 87%
    22:00 +9°C° 0 mm 1 m/s 742 mmHg 89%
    23:00 +9°C° 0 mm 1 m/s 743 mmHg 90%
    Mostrar mais